Longview, TX

5:12 AM CST on January 22, 2018 (GMT -0600)
Gregg County

Weather History for KGGG - October, 2013

Change the Weather History Date:

Friday, October 11, 2013

  Actual Average Record
Temperature  
Mean Temperature 73 °F 67 °F  
Max Temperature 85 °F 79 °F 95 °F (1937)
Min Temperature 60 °F 55 °F 38 °F (1932)
Degree Days  
Heating Degree Days 0 2  
Month to date heating degree days 4 13  
Since 1 July heating degree days 4 19  
Cooling Degree Days 8 4  
Month to date cooling degree days 82 57  
Year to date cooling degree days 2662 2336  
Growing Degree Days 22 (Base 50)    
Moisture  
Dew Point 64 °F    
Average Humidity 76    
Maximum Humidity 93    
Minimum Humidity 58    
Precipitation  
Precipitation 0.00 in 0.15 in 3.15 in (1919)
Month to date precipitation 0.03 1.63  
Year to date precipitation 26.90 35.62  
Snow  
Snow 0.00 in - - ()
Month to date snowfall 0.0  
Since 1 July snowfall 0.0  
Since 1 September snowfall 0.0  
Snow Depth 0.00 in    
Sea Level Pressure  
Sea Level Pressure 29.93 in    
Wind  
Wind Speed 6 mph (SSE)    
Max Wind Speed 13 mph    
Max Gust Speed 21 mph    
Visibility 8 miles    
Events      
T = Trace of Precipitation, MM = Missing Value Source: NWS Daily Summary

Daily Weather History Graph

Daily Weather History Graph

Search for Another Location

Airport or City:

Trip Planner

Search our weather history database for the weather conditions in past years. The results will help you decide how hot, cold, wet, or windy it might be!

Date:

Astronomy

Oct. 11, 2013 Rise Set
Actual Time 7:19 AM CDT 6:50 PM CDT
Civil Twilight 6:55 AM CDT 7:15 PM CDT
Nautical Twilight 6:26 AM CDT 7:43 PM CDT
Astronomical Twilight 5:58 AM CDT 8:12 PM CDT
Moon 1:52 PM CDT (10/11) No Moon Set
Length of Visible Light 12h 19m
Length of Day
11h 30m
Waxing Crescent, 47% of the Moon is Illuminated
Oct 11
Waxing Crescent
Oct 11
First Quarter
Oct 18
Full
Oct 26
Last Quarter
Nov 3
New

Hourly Weather History & Observations

Time (CDT) Temp. Heat Index Dew Point Humidity Pressure Visibility Wind Dir Wind Speed Gust Speed Precip Events Conditions
12:53 AM 66.0 °F - 60.1 °F 81% 29.94 in 10.0 mi SSE 6.9 mph - N/A   Clear
1:53 AM 64.9 °F - 60.1 °F 84% 29.94 in 10.0 mi SE 4.6 mph - N/A   Clear
2:53 AM 64.0 °F - 60.1 °F 87% 29.92 in 9.0 mi SSE 4.6 mph - N/A   Clear
3:53 AM 63.0 °F - 60.1 °F 90% 29.92 in 7.0 mi SSE 4.6 mph - N/A   Clear
4:53 AM 60.1 °F - 57.9 °F 93% 29.94 in 3.0 mi SE 3.5 mph - N/A   Clear
5:53 AM 62.1 °F - 60.1 °F 93% 29.95 in 6.0 mi SE 3.5 mph - N/A   Clear
6:53 AM 62.1 °F - 59.0 °F 90% 29.96 in 2.0 mi Calm Calm - N/A   Clear
7:53 AM 64.0 °F - 61.0 °F 90% 29.96 in 1.5 mi ESE 3.5 mph - N/A   Clear
8:53 AM 66.0 °F - 63.0 °F 90% 29.97 in 1.2 mi SE 6.9 mph - N/A   Mostly Cloudy
9:28 AM 66.2 °F - 64.4 °F 94% 29.99 in 3.0 mi SE 5.8 mph - N/A   Mostly Cloudy
9:53 AM 70.0 °F - 64.9 °F 84% 29.99 in 6.0 mi Calm Calm - N/A   Haze
10:53 AM 75.0 °F - 64.9 °F 71% 29.99 in 10.0 mi SSE 9.2 mph - N/A   Partly Cloudy
11:53 AM 78.1 °F - 66.0 °F 66% 29.98 in 10.0 mi South 8.1 mph - N/A   Partly Cloudy
12:53 PM 81.0 °F 83.0 °F 66.0 °F 60% 29.95 in 10.0 mi SSE 9.2 mph - N/A   Mostly Cloudy
1:53 PM 82.9 °F 85.0 °F 66.0 °F 56% 29.92 in 10.0 mi SSE 8.1 mph - N/A   Mostly Cloudy
2:53 PM 82.9 °F 85.4 °F 66.9 °F 58% 29.90 in 10.0 mi SE 8.1 mph - N/A   Scattered Clouds
3:53 PM 82.9 °F 85.4 °F 66.9 °F 58% 29.88 in 10.0 mi SSE 8.1 mph - N/A   Mostly Cloudy
4:53 PM 84.0 °F 87.0 °F 68.0 °F 58% 29.88 in 10.0 mi SSE 10.4 mph - N/A   Mostly Cloudy
5:53 PM 82.0 °F 84.5 °F 66.9 °F 60% 29.88 in 10.0 mi SSE 9.2 mph - N/A   Scattered Clouds
6:53 PM 79.0 °F - 66.9 °F 66% 29.88 in 10.0 mi SE 4.6 mph - N/A   Clear
7:53 PM 77.0 °F - 66.9 °F 71% 29.89 in 10.0 mi SE 6.9 mph - N/A   Clear
8:53 PM 75.0 °F - 66.0 °F 73% 29.90 in 10.0 mi SE 6.9 mph - N/A   Clear
9:53 PM 75.0 °F - 66.0 °F 73% 29.91 in 10.0 mi SSE 9.2 mph - N/A   Clear
10:53 PM 75.0 °F - 66.0 °F 73% 29.91 in 10.0 mi SSE 6.9 mph - N/A   Clear
11:53 PM 73.9 °F - 66.0 °F 76% 29.91 in 10.0 mi SSE 9.2 mph - N/A   Clear